Location: Al Mulaqqa?ah
(24.1833°N, 32.8833°E)
Time: 20:48:58
(UTC+00:00)

OAO 2 Rocket - Pass Details

Date: 26 September 2021
Orbit: 676 x 745 km, 35.0° (Epoch: 15 October)

Event Time Altitude Azimuth Distance (km) Brightness Sun altitude
Rises 16:23:14 0° 299° (WNW) 3,167 8.0 -10.6°
Reaches altitude 10° 16:25:41 10° 302° (WNW) 2,246 7.0 -11.1°
Maximum altitude 16:30:58 68° 25° (NNE) 797 3.5 -12.3°
Enters shadow 16:34:51 18° 105° (ESE) 1,738 4.7 -13.2°
